User: anonymous   Login
Location: Nebula Knoll Observatory
(43.6666°N, 71.0000°W)
Time: 22:06:14
(UTC-04:00)
Language:

Cosmos 1782 - Orbit

View from above orbital plane
View from above orbital plane
View from above satellite
View from above satellite

Ground track
Ground track

The orbit data is extracted from the following two-line orbital elements,

1 16986U 86074A   18230.06130476 -.00000187  00000-0 -14522-4 0  9992
2 16986  82.5046  65.8527 0009347 331.8909  28.1812 15.06904845735139
Epoch (UTC): 18 August 2018 01:28:16
Eccentricity: 0.0009347
inclination: 82.5046°
perigee height: 539 km
apogee height: 552 km
right ascension of ascending node: 65.8527°
argument of perigee: 331.8909°
revolutions per day: 15.06904845
mean anomaly at epoch: 28.1812°
orbit number at epoch: 73513

The dashed part of the orbit path shows where the satellite is in the earth's shadow,  

DLR